{"data":{"norad_id":63669,"intl_designator":"2025-085F","name":"STARLINK-11595 [DTC]","alt_names":[],"object_type":"PAYLOAD","status":"ACTIVE","operator":null,"country":"US","launch_date":"2025-04-28","launch_site_code":"AFETR","launch_vehicle":null,"mission":null,"orbit_class":"UNKNOWN","rcs_meters":null,"size_class":null,"mass_kg":null,"dimensions":null,"purposes":["comms"],"wikipedia_slug":null,"has_3d_model":false,"image_url":null,"decayed_at":null,"tle_current":{"epoch":"2026-05-25T03:29:28.144896Z","epoch_age_seconds":73035,"freshness":"FRESH","line1":"1 63669U 25085F   26145.14546464  .00153716  00000+0  11740-2 0  9999","line2":"2 63669  43.0012 177.8057 0001258 271.9599  88.1124 15.70949891 62910","mean_motion":15.70949891,"eccentricity":0.0001258,"inclination_deg":43.0012,"raan_deg":177.8057,"arg_perigee_deg":271.9599,"mean_anomaly_deg":88.1124,"bstar":0.001174,"rev_number":6291,"period_min":91.664285936158,"perigee_km":355.33381363029,"apogee_km":357.02816803678,"semimajor_km":6734.3179908335,"source":"CELESTRAK","updated_at":"2026-05-25T13:38:20.091087Z"}}}